Location: Unspecified
(38.6830°S, 0.0000°E)
Time: 05:32:54
(UTC+00:00)

Envisat - Pass Details

Date: 03 June 2019
Orbit: 764 x 766 km, 98.1° (Epoch: 18 June)

Event Time Altitude Azimuth Distance (km) Brightness Sun altitude
Exits shadow 18:15:03 14° 56° (NE) 2,071 4.9 -16.9°
Drops below altitude 10° 18:16:06 10° 45° (NE) 2,311 5.2 -17.1°
Sets 18:19:07 0° 26° (NNE) 3,226 6.1 -17.7°
